Bentonville, AR

9:55 AM CDT on March 29, 2017 (GMT -0500)
Bentonville Municipal-Thaden

Weather History for KVBT - April, 2014

Change the Weather History Date:

Sunday, April 13, 2014

  Actual Average Record
Temperature  
Mean Temperature 62 °F -  
Max Temperature 73 °F 69 °F 87 °F (1972)
Min Temperature 48 °F 46 °F 16 °F (1957)
Degree Days  
Heating Degree Days 4    
Growing Degree Days 12 (Base 50)    
Moisture  
Dew Point 54 °F    
Average Humidity 70    
Maximum Humidity 88    
Minimum Humidity 53    
Precipitation  
Precipitation 0.33 in - - ()
Sea Level Pressure  
Sea Level Pressure 29.68 in    
Wind  
Wind Speed 15 mph (SSW)    
Max Wind Speed 25 mph    
Max Gust Speed 40 mph    
Visibility 10 miles    
Events Thunderstorm    
Averages and records for this station are not official NWS values.
T = Trace of Precipitation, MM = Missing Value Source: NWS Daily Summary

Daily Weather History Graph

Daily Weather History Graph

Search for Another Location

Airport or City:

Trip Planner

Search our weather history database for the weather conditions in past years. The results will help you decide how hot, cold, wet, or windy it might be!

Date:

Astronomy

Apr. 13, 2014 Rise Set
Actual Time 6:46 AM CDT 7:49 PM CDT
Civil Twilight 6:19 AM CDT 8:15 PM CDT
Nautical Twilight 5:48 AM CDT 8:47 PM CDT
Astronomical Twilight 5:15 AM CDT 9:19 PM CDT
Moon 6:29 PM CDT (4/13) 5:42 AM CDT (4/13)
Length of Visible Light 13h 56m
Length of Day
13h 03m
Waxing Gibbous, 97% of the Moon is Illuminated
Apr 13
Waxing Gibbous
Apr 15
Full
Apr 22
Last Quarter
Apr 29
New
May 6
First Quarter

Hourly Weather History & Observations

Time (CDT) Temp. Dew Point Humidity Pressure Visibility Wind Dir Wind Speed Gust Speed Precip Events Conditions
12:15 AM 66.2 °F 55.4 °F 68% 29.76 in 10.0 mi South 12.7 mph 17.3 mph N/A   Clear
12:35 AM 66.2 °F 55.4 °F 68% 29.76 in 10.0 mi South 13.8 mph 19.6 mph N/A   Clear
12:55 AM 66.2 °F 55.4 °F 68% 29.76 in 10.0 mi South 12.7 mph 19.6 mph N/A   Clear
1:15 AM 66.2 °F 55.4 °F 68% 29.75 in 10.0 mi South 13.8 mph 20.7 mph N/A   Clear
1:35 AM 66.2 °F 55.4 °F 68% 29.74 in 10.0 mi South 11.5 mph 17.3 mph N/A   Clear
1:55 AM 66.2 °F 55.4 °F 68% 29.74 in 10.0 mi South 11.5 mph 18.4 mph N/A   Clear
2:15 AM 66.2 °F 55.4 °F 68% 29.73 in 10.0 mi South 11.5 mph 17.3 mph N/A   Clear
2:35 AM 66.2 °F 55.4 °F 68% 29.73 in 10.0 mi South 13.8 mph 17.3 mph N/A   Clear
2:55 AM 68.0 °F 55.4 °F 64% 29.72 in 10.0 mi South 15.0 mph 23.0 mph N/A   Clear
3:15 AM 68.0 °F 55.4 °F 64% 29.72 in 10.0 mi South 20.7 mph 26.5 mph N/A   Clear
3:35 AM 68.0 °F 55.4 °F 64% 29.71 in 10.0 mi South 16.1 mph 25.3 mph N/A   Clear
3:55 AM 68.0 °F 55.4 °F 64% 29.71 in 10.0 mi South 19.6 mph 24.2 mph N/A   Clear
4:15 AM 68.0 °F 55.4 °F 64% 29.70 in 10.0 mi South 15.0 mph 25.3 mph N/A   Clear
4:35 AM 68.0 °F 55.4 °F 64% 29.70 in 10.0 mi SSW 16.1 mph 24.2 mph N/A   Clear
4:55 AM 68.0 °F 57.2 °F 68% 29.70 in 10.0 mi SSW 13.8 mph 26.5 mph N/A   Partly Cloudy
5:15 AM 68.0 °F 57.2 °F 68% 29.71 in 10.0 mi SSW 16.1 mph 26.5 mph N/A   Mostly Cloudy
5:35 AM 68.0 °F 57.2 °F 68% 29.71 in 10.0 mi SSW 17.3 mph 28.8 mph N/A   Mostly Cloudy
5:55 AM 66.2 °F 57.2 °F 73% 29.71 in 10.0 mi South 21.9 mph 28.8 mph N/A   Mostly Cloudy
6:15 AM 66.2 °F 57.2 °F 73% 29.70 in 10.0 mi SSW 17.3 mph 29.9 mph N/A   Scattered Clouds
6:35 AM 66.2 °F 57.2 °F 73% 29.72 in 10.0 mi SSW 20.7 mph 27.6 mph N/A   Scattered Clouds
6:55 AM 66.2 °F 55.4 °F 68% 29.73 in 10.0 mi SSW 17.3 mph 25.3 mph N/A   Partly Cloudy
7:15 AM 66.2 °F 55.4 °F 68% 29.73 in 10.0 mi SSW 16.1 mph 21.9 mph N/A   Clear
7:35 AM 66.2 °F 55.4 °F 68% 29.74 in 10.0 mi SSW 15.0 mph 26.5 mph N/A   Clear
7:55 AM 66.2 °F 55.4 °F 68% 29.73 in 10.0 mi SSW 17.3 mph 25.3 mph N/A   Clear
8:15 AM 66.2 °F 55.4 °F 68% 29.73 in 10.0 mi SSW 13.8 mph 23.0 mph N/A   Clear
8:35 AM 66.2 °F 55.4 °F 68% 29.74 in 10.0 mi SSW 15.0 mph 23.0 mph N/A   Clear
8:55 AM 66.2 °F 55.4 °F 68% 29.74 in 10.0 mi SSW 16.1 mph 23.0 mph N/A   Partly Cloudy
9:15 AM 66.2 °F 53.6 °F 64% 29.74 in 10.0 mi SSW 19.6 mph 26.5 mph N/A   Partly Cloudy
9:35 AM 66.2 °F 53.6 °F 64% 29.75 in 10.0 mi SSW 20.7 mph 26.5 mph N/A   Scattered Clouds
9:55 AM 66.2 °F 55.4 °F 68% 29.75 in 10.0 mi SSW 12.7 mph 21.9 mph N/A   Partly Cloudy
10:55 AM 64.4 °F 55.4 °F 73% 29.76 in 10.0 mi SW 8.1 mph - N/A   Overcast
11:15 AM 64.4 °F 55.4 °F 73% 29.75 in 9.0 mi SSW 13.8 mph 24.2 mph N/A   Scattered Clouds
11:35 AM 66.2 °F 55.4 °F 68% 29.74 in 10.0 mi SSW 19.6 mph 25.3 mph N/A   Mostly Cloudy
11:55 AM 66.2 °F 55.4 °F 68% 29.72 in 10.0 mi South 13.8 mph 23.0 mph N/A   Scattered Clouds
12:15 PM 64.4 °F 55.4 °F 73% 29.68 in 10.0 mi South 18.4 mph 31.1 mph N/A   Scattered Clouds
12:35 PM 66.2 °F 55.4 °F 68% 29.68 in 10.0 mi South 16.1 mph 27.6 mph N/A   Partly Cloudy
12:55 PM 68.0 °F 57.2 °F 68% 29.66 in 10.0 mi South 15.0 mph 25.3 mph N/A   Clear
1:15 PM 69.8 °F 57.2 °F 64% 29.65 in 10.0 mi South 19.6 mph 26.5 mph N/A   Partly Cloudy
1:35 PM 69.8 °F 55.4 °F 60% 29.66 in 10.0 mi South 23.0 mph 33.4 mph N/A   Clear
1:55 PM 68.0 °F 55.4 °F 64% 29.66 in 10.0 mi South 21.9 mph 32.2 mph N/A   Scattered Clouds
2:15 PM 66.2 °F 57.2 °F 73% 29.65 in 10.0 mi South 13.8 mph 29.9 mph N/A   Mostly Cloudy
2:35 PM 66.2 °F 57.2 °F 73% 29.64 in 10.0 mi South 18.4 mph 27.6 mph N/A   Overcast
2:55 PM 66.2 °F 57.2 °F 73% 29.62 in 10.0 mi South 16.1 mph 25.3 mph N/A   Mostly Cloudy
3:15 PM 66.2 °F 57.2 °F 73% 29.61 in 10.0 mi South 19.6 mph 26.5 mph N/A   Mostly Cloudy
3:35 PM 66.2 °F 57.2 °F 73% 29.60 in 10.0 mi South 17.3 mph 25.3 mph N/A   Mostly Cloudy
3:55 PM 68.0 °F 57.2 °F 68% 29.58 in 10.0 mi South 17.3 mph 23.0 mph N/A   Scattered Clouds
4:15 PM 69.8 °F 57.2 °F 64% 29.56 in 10.0 mi South 17.3 mph 25.3 mph N/A   Clear
4:35 PM 69.8 °F 57.2 °F 64% 29.55 in 10.0 mi South 17.3 mph 26.5 mph N/A   Clear
4:55 PM 71.6 °F 57.2 °F 60% 29.54 in 10.0 mi South 19.6 mph 32.2 mph N/A   Clear
5:15 PM 71.6 °F 57.2 °F 60% 29.55 in 10.0 mi South 13.8 mph 26.5 mph N/A   Clear
5:35 PM 73.4 °F 55.4 °F 53% 29.55 in 10.0 mi SSW 18.4 mph 32.2 mph N/A   Clear
5:55 PM 71.6 °F 55.4 °F 57% 29.56 in 10.0 mi SSW 12.7 mph 24.2 mph N/A   Clear
6:15 PM 71.6 °F 55.4 °F 57% 29.57 in 10.0 mi SSW 25.3 mph 29.9 mph N/A   Clear
6:35 PM 71.6 °F 55.4 °F 57% 29.59 in 10.0 mi SSW 18.4 mph 31.1 mph N/A   Scattered Clouds
6:55 PM 69.8 °F 55.4 °F 60% 29.61 in 10.0 mi SW 11.5 mph 17.3 mph N/A   Mostly Cloudy
7:15 PM 62.6 °F 48.2 °F 59% 29.69 in 8.0 mi NW 20.7 mph 40.3 mph N/A   Overcast
7:35 PM 57.2 °F 50.0 °F 77% 29.68 in 8.0 mi WNW 9.2 mph 17.3 mph 0.08 in Thunderstorm Thunderstorm
7:55 PM 55.4 °F 51.8 °F 88% 29.65 in 9.0 mi Calm Calm - 0.17 in Thunderstorm Thunderstorm
8:15 PM 55.4 °F 51.8 °F 88% 29.65 in 10.0 mi South 6.9 mph - 0.02 in Thunderstorm Thunderstorm
8:35 PM 55.4 °F 51.8 °F 88% 29.65 in 10.0 mi South 9.2 mph - 0.07 in Thunderstorm Overcast
8:55 PM 55.4 °F 51.8 °F 88% 29.61 in 10.0 mi SSE 16.1 mph - 0.15 in Thunderstorm Thunderstorm
9:15 PM 55.4 °F 51.8 °F 88% 29.60 in 10.0 mi SSE 20.7 mph 26.5 mph 0.01 in   Overcast
9:35 PM 55.4 °F 50.0 °F 82% 29.59 in 10.0 mi SSE 21.9 mph 29.9 mph 0.01 in   Overcast
9:55 PM 55.4 °F 50.0 °F 82% 29.61 in 10.0 mi WSW 15.0 mph 18.4 mph 0.01 in   Overcast
10:15 PM 57.2 °F 48.2 °F 72% 29.65 in 10.0 mi West 11.5 mph 17.3 mph N/A   Scattered Clouds
10:35 PM 57.2 °F 50.0 °F 77% 29.69 in 10.0 mi WSW 19.6 mph - N/A   Mostly Cloudy
10:55 PM 55.4 °F 48.2 °F 77% 29.71 in 10.0 mi West 19.6 mph 26.5 mph N/A   Overcast
11:15 PM 51.8 °F 46.4 °F 82% 29.72 in 5.0 mi West 15.0 mph 24.2 mph N/A   Overcast
11:35 PM 50.0 °F 44.6 °F 82% 29.74 in 5.0 mi WNW 15.0 mph 26.5 mph N/A   Overcast
11:55 PM 48.2 °F 42.8 °F 82% 29.75 in 5.0 mi NW 15.0 mph 21.9 mph N/A   Overcast